Bingham Lake, MN

12:08 PM CST on February 14, 2016 (GMT -0600)
Windom Municipal

Weather History for KMWM - June, 2013

Change the Weather History Date:

Saturday, June 15, 2013

  Actual Average Record
Temperature  
Mean Temperature 71 °F -  
Max Temperature 78 °F 79 °F 95 °F (1987)
Min Temperature 64 °F 55 °F 38 °F (1989)
Cooling Degree Days 6    
Growing Degree Days 21 (Base 50)    
Moisture  
Dew Point 62 °F    
Average Humidity 75    
Maximum Humidity 94    
Minimum Humidity 50    
Precipitation  
Precipitation 0.22 in - - ()
Sea Level Pressure  
Sea Level Pressure 29.91 in    
Wind  
Wind Speed 7 mph (WNW)    
Max Wind Speed 17 mph    
Max Gust Speed 18 mph    
Visibility 10 miles    
Events Rain , Thunderstorm    
Averages and records for this station are not official NWS values.
T = Trace of Precipitation, MM = Missing Value Source: NWS Daily Summary

Daily Weather History Graph

Daily Weather History Graph

Search for Another Location

Airport or City:

Trip Planner

Search our weather history database for the weather conditions in past years. The results will help you decide how hot, cold, wet, or windy it might be!

Date:

Astronomy

Jun. 15, 2013 Rise Set
Actual Time 5:37 AM CDT 9:04 PM CDT
Civil Twilight 5:01 AM CDT 9:41 PM CDT
Nautical Twilight 4:13 AM CDT 10:28 PM CDT
Astronomical Twilight 3:13 AM CDT 11:29 PM CDT
Moon 12:25 PM CDT (6/15) 12:29 AM CDT (6/15)
Length of Visible Light 16h 39m
Length of Day
15h 27m
Waxing Crescent, 40% of the Moon is Illuminated
Jun 15
Waxing Crescent
Jun 16
First Quarter
Jun 23
Full
Jun 29
Last Quarter
Jul 8
New

Hourly Weather History & Observations

Time (CDT) Temp. Dew Point Humidity Pressure Visibility Wind Dir Wind Speed Gust Speed Precip Events Conditions
12:13 AM 69.8 °F 62.6 °F 78% 29.88 in 10.0 mi SSE 13.8 mph 18.4 mph N/A   Scattered Clouds
12:32 AM 69.8 °F 62.6 °F 78% 29.88 in 10.0 mi South 9.2 mph 16.1 mph N/A   Clear
12:52 AM 68.0 °F 62.6 °F 83% 29.89 in 10.0 mi South 10.4 mph 16.1 mph N/A   Clear
1:12 AM 66.2 °F 62.6 °F 88% 29.89 in 10.0 mi South 5.8 mph - N/A   Clear
1:32 AM 66.2 °F 62.6 °F 88% 29.90 in 10.0 mi Calm Calm - N/A   Clear
1:53 AM 66.2 °F 62.6 °F 88% 29.90 in 10.0 mi South 4.6 mph - N/A   Clear
2:12 AM 66.2 °F 62.6 °F 88% 29.89 in 10.0 mi WSW 8.1 mph - N/A   Clear
2:32 AM 66.2 °F 62.6 °F 88% 29.89 in 10.0 mi Calm Calm - N/A   Clear
2:53 AM 66.2 °F 62.6 °F 88% 29.89 in 10.0 mi South 5.8 mph - N/A   Clear
3:12 AM 66.2 °F 62.6 °F 88% 29.90 in 10.0 mi South 6.9 mph - N/A   Clear
3:32 AM 66.2 °F 62.6 °F 88% 29.90 in 10.0 mi South 8.1 mph - N/A   Clear
3:53 AM 68.0 °F 62.6 °F 83% 29.90 in 10.0 mi South 8.1 mph - N/A   Clear
4:12 AM 66.2 °F 62.6 °F 88% 29.89 in 10.0 mi South 8.1 mph - N/A   Clear
4:32 AM 66.2 °F 62.6 °F 88% 29.89 in 10.0 mi SSW 9.2 mph - N/A   Clear
4:53 AM 66.2 °F 62.6 °F 88% 29.89 in 10.0 mi SSW 8.1 mph - N/A   Clear
5:12 AM 66.2 °F 62.6 °F 88% 29.90 in 10.0 mi SSW 6.9 mph - N/A   Clear
5:32 AM 66.2 °F 62.6 °F 88% 29.90 in 10.0 mi SW 4.6 mph - N/A   Clear
5:53 AM 66.2 °F 60.8 °F 83% 29.90 in 10.0 mi Calm Calm - N/A   Clear
6:12 AM 64.4 °F 60.8 °F 88% 29.88 in 10.0 mi WNW 4.6 mph - N/A   Clear
6:32 AM 64.4 °F 62.6 °F 94% 29.90 in 10.0 mi Calm Calm - N/A   Clear
6:53 AM 66.2 °F 62.6 °F 88% 29.90 in 10.0 mi West 3.5 mph - N/A   Clear
7:12 AM 68.0 °F 62.6 °F 83% 29.90 in 10.0 mi West 6.9 mph - N/A   Clear
7:33 AM 69.8 °F 62.6 °F 78% 29.89 in 10.0 mi West 6.9 mph - N/A   Clear
7:53 AM 71.6 °F 62.6 °F 73% 29.89 in 10.0 mi WNW 9.2 mph - N/A   Clear
8:12 AM 73.4 °F 62.6 °F 69% 29.90 in 10.0 mi WNW 9.2 mph - N/A   Clear
8:33 AM 73.4 °F 64.4 °F 73% 29.90 in 10.0 mi WNW 10.4 mph - N/A   Clear
8:53 AM 75.2 °F 64.4 °F 69% 29.91 in 10.0 mi West 9.2 mph 16.1 mph N/A   Clear
9:12 AM 75.2 °F 64.4 °F 69% 29.93 in 10.0 mi West 8.1 mph - N/A   Scattered Clouds
9:33 AM 73.4 °F 64.4 °F 73% 29.94 in 10.0 mi WNW 6.9 mph - N/A   Scattered Clouds
9:53 AM 73.4 °F 64.4 °F 73% 29.94 in 10.0 mi NW 8.1 mph - N/A   Scattered Clouds
10:12 AM 73.4 °F 64.4 °F 73% 29.91 in 10.0 mi NNW 13.8 mph - N/A   Clear
10:32 AM 71.6 °F 64.4 °F 78% 29.89 in 10.0 mi NNW 17.3 mph - N/A   Clear
10:53 AM 71.6 °F 64.4 °F 78% 29.93 in 10.0 mi NNW 12.7 mph - N/A   Clear
11:12 AM 71.6 °F 64.4 °F 78% 29.97 in 10.0 mi West 6.9 mph - N/A   Mostly Cloudy
11:33 AM 69.8 °F 64.4 °F 83% 29.98 in 10.0 mi WSW 3.5 mph - N/A Rain , Thunderstorm Light Thunderstorms and Rain
11:52 AM 68.0 °F 64.4 °F 88% 29.97 in 2.0 mi Calm Calm - 0.09 in Rain , Thunderstorm Heavy Thunderstorms and Rain
12:12 PM 66.2 °F 64.4 °F 94% 29.96 in 7.0 mi WNW 9.2 mph - 0.04 in Rain , Thunderstorm Thunderstorms and Rain
12:32 PM 66.2 °F 64.4 °F 94% 29.95 in 7.0 mi WNW 9.2 mph - 0.08 in Rain , Thunderstorm Rain
12:52 PM 66.2 °F 62.6 °F 88% 29.94 in 10.0 mi NW 13.8 mph - 0.11 in Rain Rain
1:13 PM 66.2 °F 62.6 °F 88% 29.94 in 10.0 mi NNW 12.7 mph - 0.01 in Rain Light Rain
1:32 PM 66.2 °F 62.6 °F 88% 29.95 in 10.0 mi North 10.4 mph - 0.02 in Rain Rain
1:52 PM 68.0 °F 62.6 °F 83% 29.90 in 10.0 mi NE 10.4 mph - 0.02 in Rain Light Rain
2:13 PM 71.6 °F 64.4 °F 78% 29.91 in 10.0 mi NNE 8.1 mph - N/A   Scattered Clouds
2:32 PM 75.2 °F 60.8 °F 61% 29.92 in 10.0 mi North 10.4 mph - N/A   Clear
2:52 PM 77.0 °F 60.8 °F 57% 29.91 in 10.0 mi North 9.2 mph - N/A   Clear
3:13 PM 78.8 °F 59.0 °F 51% 29.91 in 10.0 mi North 6.9 mph - N/A   Clear
3:32 PM 78.8 °F 62.6 °F 57% 29.91 in 10.0 mi NNW 10.4 mph - N/A   Clear
3:52 PM 77.0 °F 64.4 °F 65% 29.91 in 10.0 mi NNW 12.7 mph - N/A   Clear
4:13 PM 77.0 °F 62.6 °F 61% 29.91 in 10.0 mi NNW 11.5 mph 16.1 mph N/A   Clear
4:32 PM 77.0 °F 64.4 °F 65% 29.91 in 10.0 mi NNW 10.4 mph - N/A   Clear
4:52 PM 77.0 °F 62.6 °F 61% 29.91 in 10.0 mi North 9.2 mph - N/A   Clear
5:13 PM 77.0 °F 62.6 °F 61% 29.91 in 10.0 mi NW 9.2 mph 18.4 mph N/A   Clear
5:32 PM 77.0 °F 62.6 °F 61% 29.90 in 10.0 mi NW 9.2 mph - N/A   Clear
5:52 PM 78.8 °F 62.6 °F 57% 29.90 in 10.0 mi NW 8.1 mph - N/A   Clear
6:13 PM 78.8 °F 62.6 °F 57% 29.90 in 10.0 mi NW 9.2 mph - N/A   Clear
6:32 PM 78.8 °F 60.8 °F 54% 29.90 in 10.0 mi NW 9.2 mph - N/A   Clear
6:52 PM 77.0 °F 59.0 °F 54% 29.90 in 10.0 mi NW 8.1 mph - N/A   Clear
7:13 PM 77.0 °F 57.2 °F 50% 29.90 in 10.0 mi NW 6.9 mph - N/A   Clear
7:32 PM 77.0 °F 57.2 °F 50% 29.90 in 10.0 mi NW 6.9 mph - N/A   Clear
7:52 PM 75.2 °F 57.2 °F 53% 29.90 in 10.0 mi NNW 5.8 mph - N/A   Clear
8:13 PM 73.4 °F 59.0 °F 61% 29.90 in 10.0 mi Calm Calm - N/A   Clear
8:32 PM 73.4 °F 59.0 °F 61% 29.90 in 10.0 mi Calm Calm - N/A   Clear
8:52 PM 73.4 °F 57.2 °F 57% 29.91 in 10.0 mi Calm Calm - N/A   Clear
9:13 PM 71.6 °F 59.0 °F 64% 29.91 in 10.0 mi Calm Calm - N/A   Clear
9:32 PM 68.0 °F 60.8 °F 78% 29.92 in 10.0 mi Calm Calm - N/A   Clear
9:52 PM 68.0 °F 60.8 °F 78% 29.93 in 10.0 mi Calm Calm - N/A   Clear
10:13 PM 66.2 °F 60.8 °F 83% 29.94 in 10.0 mi Calm Calm - N/A   Clear
10:32 PM 66.2 °F 60.8 °F 83% 29.94 in 10.0 mi Calm Calm - N/A   Clear
10:52 PM 64.4 °F 57.2 °F 77% 29.95 in 10.0 mi Calm Calm - N/A   Clear
11:13 PM 64.4 °F 55.4 °F 73% 29.95 in 10.0 mi Calm Calm - N/A   Clear
11:32 PM 66.2 °F 57.2 °F 73% 29.95 in 10.0 mi Calm Calm - N/A   Clear
11:52 PM 64.4 °F 59.0 °F 83% 29.95 in 10.0 mi Calm Calm - N/A   Clear